Location: Willis Wharf
(37.5156°N, 75.8067°W)
Time: 13:41:22
(UTC-04:00)

Hubble Space Telescope - Visible Passes

Search period start: 23 September 2018 00:00
Search period end: 03 October 2018 00:00
Orbit: 537 x 541 km, 28.5° (Epoch: 22 September)

Date Brightness Start Highest point End Pass type
(mag) Time Alt. Az. Time Alt. Az. Time Alt. Az.
23 Sep 2.5 19:42:53 10° WSW 19:46:04 22° S 19:49:16 10° SE visible
24 Sep 2.7 19:32:30 10° WSW 19:35:35 20° S 19:38:40 10° SE visible
25 Sep 2.9 19:22:11 10° SW 19:25:06 19° S 19:28:01 10° SE visible
